Location: Carrières
(48.9495°N, 2.0407°E)
Time: 19:53:48
(UTC+00:00)

Altair - Pass Details

Date: 30 April 2024
Orbit: 1502 x 1682 km, 47.2° (Epoch: 21 May)

Event Time Altitude Azimuth Distance (km) Brightness Sun altitude
Rises 21:29:48 0° 288° (WNW) 4,905 11.0 -18.9°
Reaches altitude 10° 21:33:05 10° 283° (WNW) 3,897 10.3 -19.2°
Maximum altitude 21:42:31 51° 212° (SSW) 1,959 7.8 -20.1°
Enters shadow 21:47:14 30° 155° (SSE) 2,567 8.1 -20.5°
